Simultaneous Nadir Overpasses (SNOs) Predictions

Prediction of SNOs between GOES-16 and NPP Satellite Orbit:

Table of predicted SNOs for the next 14.0 days since TLE Epoch: 5/5/2017
Index Date Time (GOES-16) GOES-16 Lat,Lon NPP Lat,Lon Distance(km) Time Diff (sec)
1 05/06/2017 07:29:15 0.00, -89.51 0.24, -90.69 134.30 80
2 05/07/2017 07:07:50 0.00, -89.51 -0.77, -86.16 382.42 80
3 05/08/2017 19:29:47 -0.00, -89.50 -0.42, -91.47 223.64 80
4 05/09/2017 19:13:42 -0.00, -89.51 0.60, -86.94 293.55 80
5 05/11/2017 07:35:29 0.00, -89.54 0.63, -92.20 303.39 80
6 05/12/2017 07:14:05 0.00, -89.55 -0.39, -87.67 213.65 80
7 05/13/2017 19:36:01 0.00, -89.53 -0.79, -92.97 392.41 80
8 05/14/2017 19:19:57 0.00, -89.54 0.23, -88.44 124.91 80
9 05/16/2017 07:41:45 -0.01, -89.58 0.94, -93.71 471.36 80
10 05/17/2017 07:20:21 -0.01, -89.59 -0.08, -89.18 45.90 80




NCC Satellite Simultaneous Nadir Overpasses (SNOs) Prediction Service
